| time (UTC) | temp F | wind direction | speed MPH | gust MPH | rain 1hr in | rain 24hr in | rain mn in | humidity % | barometer mb |
| 20260505014542 | 52 | 0 | 0.0 | 0.0 | 0.00 | 0.00 | 0.00 | 70 | 1011.6 |
| 20260505014023 | 52 | 0 | 0.0 | 0.0 | 0.00 | 0.00 | 0.00 | 68 | 1011.4 |
| 20260505013523 | 53 | 0 | 0.0 | 2.0 | 0.00 | 0.00 | 0.00 | 67 | 1011.3 |
| 20260505013035 | 54 | 0 | 0.0 | 2.0 | 0.00 | 0.00 | 0.00 | 62 | 1011.2 |
| 20260505012523 | 55 | 0 | 0.0 | 6.0 | 0.00 | 0.00 | 0.00 | 62 | 1011.2 |
| 20260505012023 | 56 | 1 | 2.0 | 6.0 | 0.00 | 0.00 | 0.00 | 57 | 1011.3 |
| 20260505011538 | 57 | 0 | 0.0 | 3.0 | 0.00 | 0.00 | 0.00 | 50 | 1011.1 |
| 20260505011023 | 57 | 16 | 0.0 | 3.0 | 0.00 | 0.00 | 0.00 | 50 | 1011.0 |
| 20260505010523 | 57 | 0 | 0.0 | 0.0 | 0.00 | 0.00 | 0.00 | 50 | 1011.0 |
| 20260505010048 | 57 | 0 | 0.0 | 2.0 | 0.00 | 0.00 | 0.00 | 50 | 1011.0 |
| 20260505005523 | 58 | 0 | 0.0 | 2.0 | 0.00 | 0.00 | 0.00 | 50 | 1010.8 |
| 20260505005024 | 58 | 0 | 0.0 | 2.0 | 0.00 | 0.00 | 0.00 | 50 | 1010.7 |
| 20260505004539 | 58 | 0 | 0.0 | 2.0 | 0.00 | 0.00 | 0.00 | 50 | 1010.6 |
| 20260505004023 | 58 | 0 | 0.0 | 2.0 | 0.00 | 0.00 | 0.00 | 50 | 1010.7 |
| 20260505003524 | 58 | 0 | 0.0 | 2.0 | 0.00 | 0.00 | 0.00 | 50 | 1010.7 |
| 20260505003039 | 58 | 0 | 0.0 | 2.0 | 0.00 | 0.00 | 0.00 | 51 | 1010.8 |
| 20260505002523 | 58 | 0 | 0.0 | 2.0 | 0.00 | 0.00 | 0.00 | 51 | 1010.7 |
| 20260505002023 | 59 | 20 | 0.0 | 2.0 | 0.00 | 0.00 | 0.00 | 50 | 1010.8 |
| 20260505001538 | 59 | 0 | 0.0 | 2.0 | 0.00 | 0.00 | 0.00 | 49 | 1010.6 |
| 20260505001023 | 59 | 0 | 0.0 | 3.0 | 0.00 | 0.00 | 0.00 | 49 | 1010.6 |
| 20260505000523 | 59 | 0 | 0.0 | 3.0 | 0.00 | 0.00 | 0.00 | 48 | 1010.5 |
| 20260505000047 | 59 | 0 | 0.0 | 2.0 | 0.00 | 0.00 | 0.00 | 47 | 1010.5 |
| 20260504235524 | 59 | 0 | 0.0 | 2.0 | 0.00 | 0.00 | 0.00 | 47 | 1010.4 |
| 20260504235024 | 58 | 0 | 0.0 | 2.0 | 0.00 | 0.00 | 0.00 | 46 | 1010.6 |
| 20260504234536 | 58 | 0 | 0.0 | 2.0 | 0.00 | 0.00 | 0.00 | 47 | 1010.6 |
| 20260504234024 | 58 | 0 | 0.0 | 2.0 | 0.00 | 0.00 | 0.00 | 48 | 1010.4 |
| 20260504233524 | 58 | 0 | 0.0 | 2.0 | 0.00 | 0.00 | 0.00 | 49 | 1010.5 |
| 20260504233037 | 58 | 0 | 0.0 | 2.0 | 0.00 | 0.00 | 0.00 | 49 | 1010.5 |
| 20260504232524 | 58 | 0 | 0.0 | 2.0 | 0.00 | 0.00 | 0.00 | 48 | 1010.4 |
| 20260504232025 | 58 | 0 | 0.0 | 0.0 | 0.00 | 0.00 | 0.00 | 49 | 1010.4 |
| 20260504231538 | 58 | 0 | 0.0 | 0.0 | 0.00 | 0.00 | 0.00 | 49 | 1010.2 |
| 20260504231024 | 58 | 0 | 0.0 | 0.0 | 0.00 | 0.00 | 0.00 | 49 | 1010.3 |
| 20260504230523 | 58 | 0 | 0.0 | 0.0 | 0.00 | 0.00 | 0.00 | 50 | 1010.3 |
| 20260504230040 | 58 | 0 | 0.0 | 2.0 | 0.00 | 0.00 | 0.00 | 53 | 1010.4 |
| 20260504225526 | 58 | 0 | 0.0 | 2.0 | 0.00 | 0.00 | 0.00 | 54 | 1010.6 |
| 20260504225023 | 58 | 0 | 0.0 | 1.0 | 0.00 | 0.00 | 0.00 | 53 | 1010.7 |
| 20260504224538 | 58 | 0 | 0.0 | 2.0 | 0.00 | 0.00 | 0.00 | 56 | 1010.7 |
| 20260504224023 | 59 | 0 | 0.0 | 2.0 | 0.00 | 0.00 | 0.00 | 50 | 1010.8 |
| 20260504223524 | 60 | 0 | 0.0 | 3.0 | 0.00 | 0.00 | 0.00 | 48 | 1010.8 |
| 20260504223041 | 60 | 39 | 0.0 | 3.0 | 0.00 | 0.00 | 0.00 | 44 | 1010.8 |
| 20260504222523 | 60 | 0 | 0.0 | 2.0 | 0.00 | 0.00 | 0.00 | 41 | 1010.9 |
| 20260504222023 | 61 | 0 | 0.0 | 1.0 | 0.00 | 0.00 | 0.00 | 41 | 1010.8 |
| 20260504221542 | 61 | 0 | 0.0 | 1.0 | 0.00 | 0.00 | 0.00 | 41 | 1010.6 |
| 20260504221023 | 61 | 0 | 0.0 | 1.0 | 0.00 | 0.00 | 0.00 | 41 | 1010.4 |
| 20260504220524 | 61 | 0 | 0.0 | 2.0 | 0.00 | 0.00 | 0.00 | 40 | 1010.1 |
| 20260504220047 | 61 | 0 | 0.0 | 5.0 | 0.00 | 0.00 | 0.00 | 40 | 1009.8 |
| 20260504215523 | 61 | 0 | 0.0 | 5.0 | 0.00 | 0.00 | 0.00 | 39 | 1009.6 |
| 20260504215026 | 61 | 2 | 0.0 | 6.0 | 0.00 | 0.00 | 0.00 | 40 | 1009.5 |
| 20260504214539 | 62 | 0 | 0.0 | 9.0 | 0.00 | 0.00 | 0.00 | 39 | 1009.4 |
| 20260504214023 | 62 | 357 | 2.0 | 9.0 | 0.00 | 0.00 | 0.00 | 39 | 1009.5 |
| 20260504213524 | 62 | 353 | 1.0 | 9.0 | 0.00 | 0.00 | 0.00 | 38 | 1009.5 |
| 20260504213045 | 63 | 351 | 3.0 | 9.0 | 0.00 | 0.00 | 0.00 | 37 | 1009.4 |
| 20260504212523 | 63 | 313 | 2.0 | 6.0 | 0.00 | 0.00 | 0.00 | 35 | 1009.5 |
| 20260504212024 | 64 | 70 | 1.0 | 7.0 | 0.00 | 0.00 | 0.00 | 35 | 1009.4 |
| 20260504211539 | 63 | 354 | 1.0 | 7.0 | 0.00 | 0.00 | 0.00 | 34 | 1009.5 |
| 20260504211023 | 64 | 66 | 3.0 | 6.0 | 0.00 | 0.00 | 0.00 | 34 | 1009.7 |
| 20260504210523 | 65 | 349 | 2.0 | 7.0 | 0.00 | 0.00 | 0.00 | 32 | 1009.5 |
| 20260504210041 | 67 | 0 | 2.0 | 7.0 | 0.00 | 0.00 | 0.00 | 31 | 1009.4 |
| 20260504205524 | 70 | 2 | 2.0 | 7.0 | 0.00 | 0.00 | 0.00 | 28 | 1009.4 |
| 20260504205023 | 72 | 355 | 2.0 | 7.0 | 0.00 | 0.00 | 0.00 | 25 | 1009.4 |
| 20260504204541 | 72 | 91 | 2.0 | 7.0 | 0.00 | 0.00 | 0.00 | 24 | 1008.6 |
| 20260504204024 | 71 | 101 | 2.0 | 8.0 | 0.00 | 0.00 | 0.00 | 26 | 1008.4 |
| 20260504203524 | 70 | 91 | 3.0 | 10.0 | 0.00 | 0.00 | 0.00 | 27 | 1008.4 |
| 20260504203038 | 69 | 87 | 2.0 | 8.0 | 0.00 | 0.00 | 0.00 | 28 | 1008.5 |
| 20260504202543 | 68 | 87 | 1.0 | 9.0 | 0.00 | 0.00 | 0.00 | 29 | 1008.6 |
| 20260504202024 | 67 | 103 | 2.0 | 10.0 | 0.00 | 0.00 | 0.00 | 28 | 1008.7 |
| 20260504201534 | 67 | 85 | 3.0 | 10.0 | 0.00 | 0.00 | 0.00 | 29 | 1008.8 |
| 20260504201023 | 67 | 159 | 1.0 | 10.0 | 0.00 | 0.00 | 0.00 | 30 | 1008.8 |
| 20260504200523 | 67 | 77 | 2.0 | 6.0 | 0.00 | 0.00 | 0.00 | 29 | 1008.9 |
| 20260504200041 | 69 | 79 | 0.0 | 7.0 | 0.00 | 0.00 | 0.00 | 27 | 1008.9 |
| 20260504195524 | 69 | 0 | 0.0 | 7.0 | 0.00 | 0.00 | 0.00 | 24 | 1008.8 |
| 20260504195024 | 70 | 241 | 0.0 | 2.0 | 0.00 | 0.00 | 0.00 | 23 | 1008.8 |
| 20260504194540 | 70 | 295 | 0.0 | 2.0 | 0.00 | 0.00 | 0.00 | 24 | 1008.8 |
| 20260504194024 | 70 | 273 | 0.0 | 3.0 | 0.00 | 0.00 | 0.00 | 23 | 1008.8 |
| 20260504193523 | 71 | 241 | 0.0 | 3.0 | 0.00 | 0.00 | 0.00 | 22 | 1008.7 |
| 20260504193053 | 71 | 294 | 1.0 | 3.0 | 0.00 | 0.00 | 0.00 | 21 | 1008.6 |
| 20260504192523 | 72 | 241 | 0.0 | 2.0 | 0.00 | 0.00 | 0.00 | 22 | 1008.5 |
| 20260504192023 | 73 | 262 | 0.0 | 5.0 | 0.00 | 0.00 | 0.00 | 22 | 1008.5 |
| 20260504191538 | 73 | 0 | 1.0 | 5.0 | 0.00 | 0.00 | 0.00 | 22 | 1008.3 |
| 20260504191024 | 74 | 0 | 0.0 | 2.0 | 0.00 | 0.00 | 0.00 | 22 | 1008.3 |
| 20260504190526 | 73 | 236 | 0.0 | 4.0 | 0.00 | 0.00 | 0.00 | 23 | 1008.4 |
| 20260504190041 | 71 | 299 | 0.0 | 4.0 | 0.00 | 0.00 | 0.00 | 23 | 1008.6 |
| 20260504185523 | 71 | 264 | 0.0 | 2.0 | 0.00 | 0.00 | 0.00 | 24 | 1008.6 |
| 20260504185026 | 71 | 0 | 0.0 | 3.0 | 0.00 | 0.00 | 0.00 | 24 | 1008.6 |
| 20260504184534 | 71 | 158 | 0.0 | 8.0 | 0.00 | 0.00 | 0.00 | 24 | 1008.6 |
| 20260504184024 | 71 | 283 | 1.0 | 8.0 | 0.00 | 0.00 | 0.00 | 23 | 1008.7 |
| 20260504183524 | 71 | 0 | 0.0 | 7.0 | 0.00 | 0.00 | 0.00 | 24 | 1008.7 |
| 20260504183054 | 70 | 310 | 1.0 | 6.0 | 0.00 | 0.00 | 0.00 | 24 | 1008.9 |
| 20260504182523 | 70 | 231 | 1.0 | 9.0 | 0.00 | 0.00 | 0.00 | 24 | 1008.9 |
| 20260504182021 | 71 | 309 | 1.0 | 9.0 | 0.00 | 0.00 | 0.00 | 24 | 1009.0 |
| 20260504181540 | 71 | 309 | 1.0 | 8.0 | 0.00 | 0.00 | 0.00 | 23 | 1008.9 |
| 20260504181024 | 71 | 279 | 2.0 | 8.0 | 0.00 | 0.00 | 0.00 | 24 | 1009.0 |
| 20260504180524 | 72 | 312 | 1.0 | 7.0 | 0.00 | 0.00 | 0.00 | 24 | 1009.3 |
| 20260504175524 | 70 | 262 | 1.0 | 5.0 | 0.00 | 0.00 | 0.00 | 25 | 1009.4 |
| 20260504175027 | 71 | 333 | 1.0 | 5.0 | 0.00 | 0.00 | 0.00 | 26 | 1009.4 |
| 20260504174538 | 70 | 323 | 1.0 | 7.0 | 0.00 | 0.00 | 0.00 | 26 | 1009.6 |
| 20260504174023 | 68 | 316 | 2.0 | 7.0 | 0.00 | 0.00 | 0.00 | 26 | 1009.7 |
| 20260504173526 | 69 | 293 | 1.0 | 6.0 | 0.00 | 0.00 | 0.00 | 27 | 1009.7 |
| 20260504173039 | 69 | 0 | 1.0 | 6.0 | 0.00 | 0.00 | 0.00 | 26 | 1009.8 |
| 20260504172523 | 68 | 348 | 1.0 | 4.0 | 0.00 | 0.00 | 0.00 | 26 | 1009.9 |
| 20260504172024 | 68 | 222 | 1.0 | 4.0 | 0.00 | 0.00 | 0.00 | 26 | 1009.9 |
| 20260504171541 | 68 | 252 | 1.0 | 4.0 | 0.00 | 0.00 | 0.00 | 26 | 1009.9 |
| 20260504171024 | 68 | 314 | 0.0 | 6.0 | 0.00 | 0.00 | 0.00 | 27 | 1010.1 |
| 20260504170523 | 67 | 0 | 1.0 | 5.0 | 0.00 | 0.00 | 0.00 | 27 | 1010.1 |
| 20260504151023 | 63 | 239 | 0.0 | 3.0 | 0.00 | 0.00 | 0.00 | 29 | 1010.3 |
| 20260504150523 | 63 | 251 | 0.0 | 3.0 | 0.00 | 0.00 | 0.00 | 29 | 1010.4 |
| 20260504141023 | 61 | 270 | 0.0 | 3.0 | 0.00 | 0.00 | 0.00 | 30 | 1010.6 |
| 20260504140523 | 60 | 0 | 0.0 | 3.0 | 0.00 | 0.00 | 0.00 | 30 | 1010.6 |
| 20260504130525 | 47 | 0 | 0.0 | 2.0 | 0.00 | 0.00 | 0.00 | 47 | 1010.4 |
| 20260504110523 | 43 | 0 | 0.0 | 0.0 | 0.00 | 0.00 | 0.00 | 53 | 1010.2 |
| 20260504100523 | 43 | 0 | 0.0 | 0.0 | 0.00 | 0.00 | 0.00 | 51 | 1010.7 |
| 20260504081541 | 46 | 0 | 0.0 | 0.0 | 0.00 | 0.00 | 0.00 | 46 | 1011.3 |
| 20260504081023 | 46 | 0 | 0.0 | 0.0 | 0.00 | 0.00 | 0.00 | 46 | 1011.5 |
| 20260504080524 | 46 | 0 | 0.0 | 0.0 | 0.00 | 0.00 | 0.00 | 45 | 1011.5 |
| 20260504050524 | 62 | 0 | 0.0 | 2.0 | 0.00 | 0.00 | 0.00 | 26 | 1011.9 |
| 20260504045524 | 62 | 0 | 0.0 | 2.0 | 0.00 | 0.00 | 0.00 | 26 | 1011.9 |
| 20260504045026 | 62 | 129 | 0.0 | 2.0 | 0.00 | 0.00 | 0.00 | 26 | 1011.9 |
| 20260504044539 | 62 | 0 | 0.0 | 2.0 | 0.00 | 0.00 | 0.00 | 26 | 1012.0 |
| 20260504044023 | 62 | 0 | 0.0 | 2.0 | 0.00 | 0.00 | 0.00 | 26 | 1012.0 |
| 20260504043533 | 62 | 0 | 0.0 | 2.0 | 0.00 | 0.00 | 0.00 | 26 | 1012.0 |
| 20260504043051 | 62 | 0 | 0.0 | 1.0 | 0.00 | 0.00 | 0.00 | 26 | 1012.0 |
| 20260504042524 | 62 | 0 | 0.0 | 1.0 | 0.00 | 0.00 | 0.00 | 26 | 1012.0 |
| 20260504042028 | 62 | 0 | 0.0 | 1.0 | 0.00 | 0.00 | 0.00 | 26 | 1012.0 |
| 20260504041539 | 62 | 0 | 0.0 | 2.0 | 0.00 | 0.00 | 0.00 | 27 | 1012.1 |
| 20260504041022 | 63 | 0 | 0.0 | 2.0 | 0.00 | 0.00 | 0.00 | 27 | 1012.2 |
| 20260504040523 | 63 | 0 | 0.0 | 2.0 | 0.00 | 0.00 | 0.00 | 26 | 1012.2 |
| 20260504040046 | 63 | 0 | 0.0 | 2.0 | 0.00 | 0.00 | 0.00 | 26 | 1012.2 |
| 20260504035524 | 63 | 0 | 0.0 | 2.0 | 0.00 | 0.00 | 0.00 | 26 | 1012.2 |
| 20260504035027 | 63 | 0 | 0.0 | 2.0 | 0.00 | 0.00 | 0.00 | 26 | 1012.2 |
| 20260504034544 | 63 | 0 | 0.0 | 2.0 | 0.00 | 0.00 | 0.00 | 26 | 1012.2 |
| 20260504034023 | 64 | 0 | 0.0 | 2.0 | 0.00 | 0.00 | 0.00 | 27 | 1012.3 |
| 20260504033526 | 64 | 0 | 0.0 | 2.0 | 0.00 | 0.00 | 0.00 | 26 | 1012.4 |
| 20260504033041 | 64 | 0 | 0.0 | 2.0 | 0.00 | 0.00 | 0.00 | 26 | 1012.3 |
| 20260504032523 | 64 | 324 | 0.0 | 2.0 | 0.00 | 0.00 | 0.00 | 26 | 1012.4 |
| 20260504032024 | 64 | 0 | 0.0 | 2.0 | 0.00 | 0.00 | 0.00 | 26 | 1012.3 |
| 20260504031546 | 65 | 0 | 0.0 | 2.0 | 0.00 | 0.00 | 0.00 | 26 | 1012.4 |
| 20260504031023 | 65 | 0 | 0.0 | 2.0 | 0.00 | 0.00 | 0.00 | 26 | 1012.4 |
| 20260504030523 | 65 | 0 | 0.0 | 2.0 | 0.00 | 0.00 | 0.00 | 25 | 1012.3 |
| 20260504030047 | 65 | 0 | 0.0 | 2.0 | 0.00 | 0.00 | 0.00 | 25 | 1012.3 |
| 20260504025528 | 65 | 0 | 0.0 | 2.0 | 0.00 | 0.00 | 0.00 | 25 | 1012.2 |
| 20260504025024 | 65 | 0 | 0.0 | 2.0 | 0.00 | 0.00 | 0.00 | 25 | 1012.2 |
| 20260504024541 | 65 | 0 | 0.0 | 2.0 | 0.00 | 0.00 | 0.00 | 25 | 1012.2 |
| 20260504024024 | 66 | 0 | 0.0 | 2.0 | 0.00 | 0.00 | 0.00 | 24 | 1012.1 |
| 20260504023523 | 66 | 0 | 0.0 | 2.0 | 0.00 | 0.00 | 0.00 | 24 | 1012.1 |
| 20260504023036 | 66 | 0 | 0.0 | 2.0 | 0.00 | 0.00 | 0.00 | 24 | 1012.1 |
| 20260504022526 | 66 | 0 | 0.0 | 3.0 | 0.00 | 0.00 | 0.00 | 24 | 1012.0 |
| 20260504022023 | 66 | 0 | 0.0 | 3.0 | 0.00 | 0.00 | 0.00 | 24 | 1012.0 |
| 20260504021541 | 66 | 0 | 0.0 | 2.0 | 0.00 | 0.00 | 0.00 | 24 | 1012.0 |
| 20260504021023 | 66 | 212 | 0.0 | 2.0 | 0.00 | 0.00 | 0.00 | 24 | 1011.9 |
| 20260504020523 | 66 | 0 | 0.0 | 2.0 | 0.00 | 0.00 | 0.00 | 23 | 1011.9 |
| 20260504020051 | 67 | 0 | 0.0 | 2.0 | 0.00 | 0.00 | 0.00 | 23 | 1011.8 |
| 20260504015523 | 67 | 195 | 0.0 | 2.0 | 0.00 | 0.00 | 0.00 | 23 | 1011.7 |
| 20260504015024 | 67 | 0 | 0.0 | 2.0 | 0.00 | 0.00 | 0.00 | 23 | 1011.7 |